QPF
0.04 0.04 0.04 0.04 0.05 0.05 0.05 0.05 0.05 0.05 0.05 0.05 0.04 0.03 0.03 0.04 0.04 0.05 0.05 0.04 0.03 0.03 0.04 0.04 0.03 0.03 0.03 0.03 0.03 0.03 0.04 0.05 0.05 0.04 0.03 0.03 0.03 0.03 0.03 0.03 0.02 0.02 0.01
0.04 0.04 0.03 0.03 0.04 0.04 0.04 0.05 0.05 0.05 0.05 0.05 0.04 0.04 0.04 0.04 0.04 0.04 0.05 0.04 0.04 0.03 0.03 0.03 0.02 0.02 0.02 0.02 0.03 0.03 0.04 0.04 0.05 0.05 0.03 0.03 0.03 0.03 0.03 0.03 0.02 0.01 0.01
0.04 0.04 0.04 0.03 0.03 0.03 0.03 0.04 0.04 0.05 0.06 0.06 0.04 0.04 0.04 0.04 0.04 0.04 0.04 0.04 0.03 0.03 0.03 0.02 0.02 0.02 0.02 0.02 0.02 0.02 0.03 0.03 0.04 0.04 0.03 0.02 0.03 0.02 0.02 0.02 0.01 0.01 0.01
0.04 0.04 0.03 0.03 0.03 0.03 0.02 0.03 0.03 0.03 0.04 0.04 0.03 0.03 0.03 0.03 0.03 0.03 0.03 0.03 0.03 0.03 0.03 0.02 0.02 0.02 0.02 0.02 0.02 0.02 0.02 0.03 0.03 0.04 0.03 0.03 0.03 0.02 0.02 0.02 0.02 0.01 0.01
0.03 0.03 0.03 0.04 0.03 0.03 0.02 0.02 0.03 0.03 0.03 0.04 0.03 0.02 0.02 0.02 0.03 0.03 0.03 0.03 0.03 0.02 0.02 0.02 0.02 0.02 0.03 0.03 0.02 0.02 0.02 0.03 0.03 0.04 0.03 0.03 0.03 0.02 0.02 0.02 0.02 0.02 0.01
0.03 0.03 0.03 0.03 0.04 0.03 0.03 0.03 0.02 0.03 0.02 0.03 0.03 0.02 0.02 0.02 0.03 0.03 0.03 0.03 0.03 0.03 0.02 0.02 0.02 0.03 0.04 0.05 0.05 0.04 0.03 0.03 0.03 0.03 0.03 0.03 0.03 0.02 0.02 0.02 0.02 0.02 0.01
0.04 0.03 0.03 0.03 0.04 0.04 0.03 0.03 0.03 0.03 0.03 0.02 0.03 0.02 0.02 0.02 0.03 0.03 0.03 0.03 0.03 0.03 0.03 0.04 0.03 0.03 0.04 0.04 0.05 0.06 0.05 0.04 0.04 0.04 0.04 0.03 0.03 0.03 0.03 0.03 0.02 0.02 0.02
0.02 0.02 0.03 0.03 0.04 0.04 0.04 0.03 0.03 0.03 0.03 0.02 0.02 0.02 0.02 0.03 0.03 0.03 0.03 0.03 0.04 0.04 0.04 0.04 0.04 0.04 0.03 0.03 0.04 0.05 0.05 0.04 0.03 0.03 0.03 0.02 0.02 0.02 0.02 0.03 0.03 0.03 0.02
0.02 0.02 0.03 0.04 0.04 0.04 0.04 0.03 0.03 0.03 0.03 0.03 0.03 0.03 0.03 0.03 0.03 0.03 0.03 0.03 0.04 0.04 0.03 0.03 0.03 0.03 0.04 0.03 0.03 0.03 0.03 0.03 0.03 0.03 0.02 0.02 0.02 0.03 0.03 0.03 0.03 0.03 0.02
0.02 0.02 0.03 0.04 0.04 0.04 0.04 0.03 0.03 0.03 0.04 0.04 0.04 0.03 0.03 0.02 0.03 0.03 0.03 0.03 0.03 0.02 0.02 0.02 0.02 0.02 0.03 0.03 0.03 0.03 0.03 0.03 0.03 0.03 0.03 0.03 0.03 0.03 0.03 0.03 0.03 0.03 0.03
0.03 0.03 0.04 0.05 0.05 0.04 0.04 0.04 0.04 0.03 0.04 0.04 0.05 0.04 0.03 0.02 0.02 0.03 0.03 0.02 0.02 0.02 0.02 0.02 0.02 0.02 0.02 0.02 0.03 0.03 0.03 0.03 0.03 0.03 0.03 0.03 0.03 0.03 0.03 0.03 0.03 0.03 0.03
0.02 0.03 0.03 0.04 0.04 0.03 0.03 0.03 0.03 0.03 0.04 0.04 0.04 0.04 0.04 0.03 0.03 0.03 0.03 0.02 0.02 0.03 0.03 0.02 0.02 0.02 0.02 0.02 0.03 0.03 0.03 0.03 0.03 0.03 0.03 0.02 0.02 0.03 0.03 0.02 0.02 0.03 0.03
0.02 0.02 0.02 0.02 0.02 0.02 0.02 0.02 0.02 0.03 0.03 0.03 0.03 0.03 0.03 0.03 0.03 0.03 0.03 0.02 0.02 0.03 0.03 0.03 0.03 0.02 0.02 0.02 0.03 0.03 0.02 0.02 0.03 0.03 0.03 0.02 0.02 0.02 0.02 0.02 0.02 0.03 0.03
0.02 0.02 0.01 0.01 0.01 0.01 0.01 0.01 0.01 0.03 0.03 0.02 0.02 0.03 0.03 0.03 0.03 0.02 0.02 0.02 0.02 0.02 0.02 0.02 0.02 0.02 0.02 0.02 0.02 0.02 0.02 0.02 0.02 0.03 0.03 0.02 0.02 0.02 0.03 0.03 0.03 0.03 0.03
0.01 0.01 0.01 0.01 0.01 0.01 0.02 0.02 0.02 0.03 0.03 0.03 0.03 0.03 0.03 0.03 0.02 0.02 0.03 0.02 0.02 0.02 0.02 0.02 0.02 0.02 0.02 0.02 0.02 0.02 0.02 0.02 0.03 0.04 0.04 0.03 0.03 0.03 0.03 0.03 0.03 0.03 0.03
0.01 0.01 0.01 0.01 0.01 0.01 0.02 0.03 0.04 0.04 0.03 0.03 0.02 0.02 0.02 0.03 0.03 0.02 0.02 0.02 0.02 0.02 0.02 0.02 0.02 0.02 0.02 0.02 0.02 0.02 0.02 0.02 0.03 0.04 0.05 0.04 0.04 0.03 0.03 0.03 0.03 0.03 0.03
0.01 0.01 0.01 0.01 0.02 0.02 0.02 0.02 0.03 0.03 0.02 0.02 0.01 0.02 0.02 0.02 0.02 0.02 0.02 0.02 0.02 0.02 0.02 0.02 0.02 0.02 0.02 0.02 0.02 0.02 0.02 0.02 0.03 0.04 0.05 0.05 0.04 0.04 0.04 0.04 0.04 0.03 0.03
0.02 0.02 0.02 0.02 0.02 0.02 0.02 0.01 0.01 0.01 0.01 0.01 0.01 0.01 0.01 0.01 0.01 0.01 0.01 0.01 0.01 0.01 0.01 0.02 0.02 0.01 0.02 0.02 0.02 0.02 0.02 0.02 0.03 0.04 0.05 0.05 0.05 0.05 0.05 0.04 0.03 0.03 0.03
0.02 0.02 0.02 0.02 0.02 0.02 0.02 0.01 0.01 0.01 0.01 0.01 0.01 0.01 0.01 0.01 0.01 0.01 0.01 0.01 0.01 0.02 0.02 0.01 0.01 0.02 0.02 0.02 0.02 0.02 0.02 0.03 0.04 0.05 0.05 0.05 0.05 0.05 0.05 0.04 0.03 0.03 0.03
0.01 0.01 0.01 0.01 0.01 0.01 0.01 0.01 0.01 0.01 0.01 0.01 0.01 0.01 0.01 0.01 0.01 0.01 0.01 0.01 0.02 0.02 0.02 0.02 0.01 0.02 0.02 0.02 0.02 0.03 0.03 0.04 0.05 0.05 0.05 0.05 0.05 0.05 0.05 0.04 0.03 0.03 0.03
0.01 0.01 0.01 0.01 0.01 0.01 0.01 0.01 0.01 0.01 0.01 0.01 0.01 0.02 0.02 0.02 0.02 0.02 0.01 0.02 0.02 0.02 0.02 0.02 0.02 0.02 0.02 0.02 0.03 0.04 0.04 0.05 0.05 0.06 0.05 0.05 0.04 0.04 0.04 0.03 0.03 0.03 0.02
0.01 0.01 0.01 0.01 0.01 0.01 0.01 0.01 0.01 0.01 0.01 0.01 0.01 0.01 0.01 0.01 0.02 0.02 0.02 0.02 0.02 0.02 0.02 0.02 0.02 0.02 0.03 0.03 0.03 0.04 0.04 0.05 0.06 0.06 0.05 0.04 0.03 0.03 0.03 0.03 0.03 0.03 0.03
0.01 0.01 0.01 0.01 0.01 0.01 0.01 0.01 0.01 0.01 0.01 0.01 0.01 0.01 0.01 0.01 0.01 0.02 0.02 0.02 0.02 0.02 0.02 0.02 0.02 0.02 0.02 0.03 0.03 0.04 0.04 0.05 0.05 0.04 0.03 0.02 0.02 0.02 0.02 0.03 0.03 0.03 0.03
0.01 0.01 0.01 0.01 0.01 0.01 0.01 0.01 0.01 0.01 0.01 0.01 0.01 0.01 0.01 0.01 0.01 0.01 0.02 0.02 0.02 0.02 0.02 0.02 0.02 0.02 0.02 0.02 0.03 0.03 0.04 0.04 0.03 0.02 0.02 0.02 0.01 0.02 0.02 0.02 0.02 0.02 0.03
0.01 0.01 0.01 0.01 0.01 0.01 0.01 0.01 0.01 0.01 0.01 0.01 0.01 0.01 0.01 0.01 0.01 0.01 0.01 0.02 0.02 0.02 0.02 0.02 0.02 0.02 0.02 0.02 0.02 0.02 0.02 0.02 0.02 0.02 0.02 0.01 0.01 0.02 0.02 0.02 0.02 0.02 0.03
0.01 0.01 0.01 0.01 0.01 0.01 0.01 0.01 0.01 0.01 0.01 0.01 0.01 0.01 0.01 0.01 0.01 0.01 0.01 0.01 0.02 0.02 0.01 0.02 0.02 0.01 0.02 0.02 0.02 0.02 0.02 0.02 0.02 0.02 0.02 0.02 0.02 0.01 0.01 0.02 0.02 0.02 0.02
MSLP
1011.78 1012.42 1012.96 1013.40 1013.74 1014.00 1014.20 1014.36 1014.47 1014.54 1014.55 1014.48 1014.32 1014.06 1013.71 1013.29 1012.83 1012.38 1011.97 1011.64 1011.39 1011.22 1011.10 1011.00 1010.86 1010.67 1010.38 1010.00 1009.55 1009.06 1008.58 1008.17 1007.89 1007.78 1007.85 1008.13 1008.59 1009.22 1009.97 1010.82 1011.73 1012.66 1013.61
1011.62 1012.33 1012.94 1013.46 1013.88 1014.21 1014.46 1014.63 1014.74 1014.78 1014.74 1014.60 1014.36 1014.03 1013.60 1013.13 1012.63 1012.14 1011.72 1011.36 1011.09 1010.89 1010.72 1010.55 1010.34 1010.04 1009.65 1009.17 1008.62 1008.06 1007.54 1007.13 1006.87 1006.82 1006.98 1007.37 1007.95 1008.69 1009.56 1010.51 1011.49 1012.49 1013.47
1011.34 1012.12 1012.82 1013.43 1013.94 1014.35 1014.65 1014.87 1014.99 1015.01 1014.93 1014.74 1014.44 1014.05 1013.58 1013.06 1012.54 1012.03 1011.58 1011.21 1010.89 1010.62 1010.37 1010.08 1009.73 1009.28 1008.74 1008.11 1007.44 1006.78 1006.21 1005.78 1005.56 1005.58 1005.85 1006.37 1007.10 1008.00 1009.02 1010.10 1011.19 1012.28 1013.32
1010.94 1011.80 1012.59 1013.29 1013.89 1014.38 1014.75 1015.01 1015.16 1015.18 1015.08 1014.87 1014.54 1014.12 1013.63 1013.10 1012.57 1012.06 1011.60 1011.19 1010.82 1010.47 1010.09 1009.66 1009.14 1008.50 1007.77 1006.97 1006.14 1005.37 1004.72 1004.27 1004.07 1004.16 1004.54 1005.21 1006.10 1007.16 1008.34 1009.57 1010.80 1011.99 1013.12
1010.48 1011.39 1012.25 1013.03 1013.72 1014.29 1014.73 1015.04 1015.22 1015.27 1015.18 1014.97 1014.65 1014.23 1013.75 1013.24 1012.73 1012.23 1011.76 1011.32 1010.90 1010.45 1009.95 1009.36 1008.65 1007.82 1006.90 1005.90 1004.92 1004.02 1003.28 1002.79 1002.59 1002.73 1003.20 1003.98 1005.01 1006.23 1007.55 1008.93 1010.29 1011.59 1012.82
1009.98 1010.93 1011.84 1012.69 1013.44 1014.08 1014.59 1014.96 1015.19 1015.27 1015.22 1015.04 1014.74 1014.36 1013.92 1013.45 1012.96 1012.49 1012.03 1011.57 1011.10 1010.57 1009.95 1009.22 1008.35 1007.35 1006.24 1005.08 1003.95 1002.92 1002.10 1001.55 1001.33 1001.48 1001.99 1002.84 1003.96 1005.28 1006.72 1008.20 1009.67 1011.08 1012.40
1009.51 1010.47 1011.41 1012.30 1013.11 1013.80 1014.37 1014.79 1015.07 1015.21 1015.20 1015.07 1014.82 1014.49 1014.10 1013.68 1013.24 1012.80 1012.36 1011.90 1011.39 1010.80 1010.10 1009.27 1008.28 1007.15 1005.92 1004.63 1003.39 1002.26 1001.35 1000.74 1000.47 1000.59 1001.09 1001.94 1003.07 1004.43 1005.91 1007.45 1008.99 1010.47 1011.86
1009.11 1010.06 1011.01 1011.92 1012.76 1013.49 1014.10 1014.58 1014.91 1015.10 1015.15 1015.08 1014.89 1014.62 1014.29 1013.92 1013.53 1013.13 1012.70 1012.25 1011.73 1011.12 1010.38 1009.50 1008.46 1007.27 1005.98 1004.64 1003.34 1002.16 1001.19 1000.51 1000.17 1000.21 1000.63 1001.40 1002.47 1003.77 1005.22 1006.75 1008.30 1009.80 1011.24
1008.82 1009.75 1010.69 1011.60 1012.45 1013.21 1013.86 1014.38 1014.76 1015.01 1015.11 1015.09 1014.96 1014.75 1014.47 1014.14 1013.79 1013.42 1013.02 1012.58 1012.08 1011.48 1010.75 1009.89 1008.86 1007.70 1006.44 1005.12 1003.82 1002.64 1001.63 1000.89 1000.47 1000.40 1000.69 1001.32 1002.24 1003.41 1004.74 1006.18 1007.66 1009.14 1010.58
1008.67 1009.57 1010.49 1011.38 1012.23 1013.00 1013.67 1014.22 1014.65 1014.94 1015.10 1015.13 1015.05 1014.88 1014.64 1014.35 1014.03 1013.69 1013.31 1012.90 1012.43 1011.87 1011.20 1010.40 1009.47 1008.40 1007.23 1006.01 1004.78 1003.64 1002.64 1001.86 1001.35 1001.14 1001.26 1001.70 1002.42 1003.38 1004.52 1005.81 1007.17 1008.57 1009.97
1008.65 1009.52 1010.40 1011.27 1012.10 1012.87 1013.55 1014.13 1014.58 1014.91 1015.11 1015.18 1015.15 1015.01 1014.81 1014.55 1014.25 1013.92 1013.58 1013.20 1012.77 1012.28 1011.70 1011.02 1010.21 1009.30 1008.28 1007.20 1006.10 1005.05 1004.09 1003.29 1002.70 1002.36 1002.30 1002.51 1002.98 1003.70 1004.61 1005.69 1006.88 1008.16 1009.47
1008.75 1009.57 1010.41 1011.25 1012.06 1012.81 1013.49 1014.08 1014.55 1014.91 1015.14 1015.26 1015.25 1015.15 1014.98 1014.74 1014.46 1014.15 1013.83 1013.49 1013.12 1012.71 1012.24 1011.69 1011.05 1010.31 1009.48 1008.58 1007.64 1006.70 1005.81 1005.02 1004.38 1003.92 1003.68 1003.67 1003.89 1004.34 1005.00 1005.85 1006.85 1007.96 1009.16
1008.91 1009.69 1010.49 1011.29 1012.06 1012.79 1013.46 1014.05 1014.54 1014.92 1015.18 1015.33 1015.36 1015.29 1015.14 1014.93 1014.68 1014.40 1014.10 1013.80 1013.49 1013.16 1012.80 1012.38 1011.90 1011.34 1010.71 1010.00 1009.23 1008.43 1007.63 1006.88 1006.20 1005.65 1005.26 1005.06 1005.06 1005.26 1005.68 1006.29 1007.07 1008.01 1009.06
1009.09 1009.83 1010.58 1011.33 1012.07 1012.77 1013.42 1014.00 1014.50 1014.89 1015.18 1015.36 1015.43 1015.41 1015.30 1015.12 1014.90 1014.66 1014.40 1014.14 1013.89 1013.63 1013.36 1013.07 1012.73 1012.34 1011.87 1011.34 1010.73 1010.07 1009.38 1008.68 1008.02 1007.42 1006.92 1006.57 1006.38 1006.38 1006.57 1006.97 1007.55 1008.30 1009.19
1009.25 1009.94 1010.65 1011.35 1012.04 1012.71 1013.34 1013.90 1014.40 1014.81 1015.13 1015.35 1015.47 1015.49 1015.43 1015.31 1015.14 1014.94 1014.72 1014.51 1014.31 1014.11 1013.92 1013.72 1013.49 1013.22 1012.90 1012.52 1012.06 1011.53 1010.94 1010.32 1009.69 1009.09 1008.54 1008.09 1007.77 1007.61 1007.63 1007.84 1008.23 1008.80 1009.53
1009.35 1010.00 1010.66 1011.32 1011.97 1012.60 1013.20 1013.75 1014.25 1014.67 1015.02 1015.28 1015.45 1015.53 1015.53 1015.47 1015.36 1015.22 1015.06 1014.89 1014.73 1014.58 1014.44 1014.30 1014.15 1013.97 1013.76 1013.48 1013.14 1012.73 1012.25 1011.72 1011.16 1010.58 1010.03 1009.54 1009.15 1008.89 1008.78 1008.84 1009.07 1009.47 1010.02
1009.40 1010.01 1010.62 1011.23 1011.84 1012.44 1013.01 1013.55 1014.04 1014.48 1014.86 1015.15 1015.38 1015.52 1015.60 1015.61 1015.57 1015.49 1015.38 1015.26 1015.14 1015.03 1014.92 1014.82 1014.71 1014.59 1014.43 1014.24 1013.99 1013.68 1013.31 1012.87 1012.39 1011.88 1011.37 1010.88 1010.47 1010.14 1009.94 1009.88 1009.98 1010.22 1010.60
1009.39 1009.96 1010.53 1011.11 1011.69 1012.26 1012.81 1013.33 1013.82 1014.27 1014.66 1015.00 1015.27 1015.47 1015.61 1015.70 1015.73 1015.71 1015.66 1015.59 1015.51 1015.42 1015.34 1015.25 1015.16 1015.07 1014.96 1014.82 1014.65 1014.42 1014.14 1013.80 1013.41 1012.98 1012.53 1012.09 1011.68 1011.33 1011.06 1010.91 1010.88 1010.98 1011.20
1009.34 1009.88 1010.42 1010.98 1011.53 1012.08 1012.61 1013.13 1013.61 1014.06 1014.47 1014.83 1015.13 1015.39 1015.59 1015.73 1015.83 1015.88 1015.89 1015.86 1015.81 1015.75 1015.68 1015.61 1015.53 1015.46 1015.37 1015.27 1015.15 1015.00 1014.80 1014.55 1014.26 1013.91 1013.54 1013.14 1012.75 1012.40 1012.09 1011.86 1011.72 1011.68 1011.76
1009.28 1009.79 1010.31 1010.85 1011.39 1011.93 1012.45 1012.96 1013.43 1013.87 1014.28 1014.65 1014.98 1015.26 1015.51 1015.70 1015.85 1015.96 1016.02 1016.04 1016.03 1015.99 1015.94 1015.88 1015.82 1015.75 1015.69 1015.63 1015.55 1015.46 1015.33 1015.16 1014.95 1014.69 1014.39 1014.04 1013.68 1013.31 1012.97 1012.67 1012.43 1012.28 1012.21
1009.22 1009.71 1010.23 1010.76 1011.30 1011.82 1012.34 1012.82 1013.28 1013.71 1014.10 1014.47 1014.80 1015.10 1015.37 1015.60 1015.79 1015.94 1016.05 1016.12 1016.15 1016.14 1016.11 1016.07 1016.03 1015.98 1015.94 1015.90 1015.86 1015.82 1015.75 1015.65 1015.51 1015.32 1015.07 1014.77 1014.43 1014.05 1013.67 1013.31 1012.98 1012.71 1012.53
1009.19 1009.66 1010.17 1010.70 1011.23 1011.75 1012.25 1012.71 1013.15 1013.55 1013.91 1014.26 1014.58 1014.88 1015.15 1015.41 1015.63 1015.82 1015.97 1016.08 1016.15 1016.19 1016.19 1016.18 1016.15 1016.12 1016.10 1016.09 1016.09 1016.08 1016.06 1016.01 1015.92 1015.78 1015.58 1015.30 1014.97 1014.59 1014.17 1013.75 1013.34 1012.98 1012.69
1009.20 1009.66 1010.16 1010.67 1011.20 1011.70 1012.17 1012.60 1013.00 1013.36 1013.69 1014.00 1014.30 1014.59 1014.86 1015.13 1015.38 1015.60 1015.79 1015.94 1016.05 1016.12 1016.16 1016.18 1016.18 1016.17 1016.17 1016.18 1016.19 1016.21 1016.22 1016.21 1016.15 1016.04 1015.87 1015.61 1015.29 1014.89 1014.45 1013.98 1013.51 1013.08 1012.70
1009.27 1009.70 1010.18 1010.68 1011.17 1011.64 1012.07 1012.46 1012.81 1013.12 1013.41 1013.69 1013.96 1014.23 1014.50 1014.78 1015.04 1015.30 1015.52 1015.71 1015.86 1015.96 1016.03 1016.07 1016.09 1016.10 1016.11 1016.13 1016.15 1016.18 1016.21 1016.21 1016.18 1016.09 1015.93 1015.69 1015.37 1014.98 1014.52 1014.02 1013.51 1013.02 1012.59
1009.41 1009.81 1010.25 1010.70 1011.14 1011.56 1011.94 1012.27 1012.56 1012.83 1013.07 1013.31 1013.56 1013.82 1014.09 1014.37 1014.66 1014.94 1015.19 1015.41 1015.59 1015.72 1015.81 1015.87 1015.89 1015.90 1015.91 1015.92 1015.95 1015.97 1016.00 1016.01 1015.99 1015.91 1015.77 1015.55 1015.25 1014.86 1014.40 1013.90 1013.37 1012.86 1012.38
1009.61 1009.96 1010.35 1010.74 1011.11 1011.46 1011.77 1012.03 1012.27 1012.48 1012.69 1012.90 1013.13 1013.38 1013.66 1013.96 1014.27 1014.57 1014.85 1015.09 1015.28 1015.43 1015.52 1015.57 1015.59 1015.59 1015.58 1015.57 1015.58 1015.59 1015.61 1015.62 1015.60 1015.54 1015.42 1015.22 1014.94 1014.58 1014.14 1013.65 1013.13 1012.60 1012.10
Thickness
5485 5486 5487 5488 5489 5489 5491 5492 5494 5494 5495 5496 5497 5497 5497 5497 5496 5496 5496 5496 5496 5495 5494 5494 5494 5494 5494 5493 5492 5491 5491 5491 5492 5494 5492 5490 5487 5485 5484 5482 5482 5482 5483
5472 5473 5475 5475 5476 5477 5478 5480 5481 5482 5483 5484 5485 5485 5485 5485 5484 5484 5484 5484 5485 5485 5484 5484 5484 5484 5483 5482 5482 5482 5482 5481 5481 5482 5481 5479 5477 5475 5474 5473 5473 5473 5474
5460 5461 5462 5462 5463 5465 5466 5468 5469 5471 5471 5472 5472 5473 5473 5473 5473 5473 5473 5473 5473 5474 5474 5474 5475 5474 5474 5472 5472 5472 5472 5470 5469 5469 5470 5469 5468 5466 5465 5465 5464 5465 5465
5449 5450 5450 5451 5451 5453 5454 5456 5457 5458 5459 5460 5460 5460 5460 5461 5461 5461 5462 5462 5463 5462 5462 5463 5464 5464 5464 5463 5462 5462 5461 5460 5459 5459 5459 5459 5458 5457 5456 5456 5457 5457 5459
5439 5440 5440 5439 5440 5441 5442 5443 5445 5445 5446 5447 5448 5449 5449 5449 5450 5450 5450 5451 5451 5452 5452 5452 5454 5453 5453 5453 5452 5453 5452 5451 5450 5450 5450 5450 5449 5448 5449 5448 5448 5450 5451
5429 5429 5428 5428 5429 5429 5430 5431 5433 5433 5434 5435 5437 5437 5438 5439 5439 5439 5439 5440 5440 5441 5442 5442 5443 5442 5443 5443 5443 5443 5442 5442 5443 5442 5443 5442 5442 5441 5440 5439 5439 5441 5443
5419 5418 5418 5418 5418 5418 5419 5420 5421 5422 5423 5424 5425 5426 5427 5428 5428 5428 5428 5428 5430 5431 5431 5432 5433 5433 5433 5434 5434 5433 5432 5431 5431 5433 5434 5435 5434 5434 5432 5432 5432 5433 5434
5410 5409 5408 5408 5407 5407 5408 5409 5410 5412 5413 5414 5415 5416 5417 5418 5417 5417 5418 5419 5420 5420 5421 5422 5423 5424 5424 5425 5425 5425 5425 5425 5425 5424 5424 5425 5425 5425 5424 5424 5424 5424 5425
5400 5400 5399 5398 5398 5398 5399 5400 5400 5401 5402 5403 5404 5405 5407 5406 5406 5408 5409 5410 5411 5411 5412 5413 5414 5414 5414 5414 5416 5417 5418 5418 5416 5416 5416 5416 5416 5416 5415 5416 5416 5417 5420
5391 5390 5389 5389 5389 5388 5389 5389 5389 5390 5391 5392 5393 5395 5395 5396 5398 5399 5400 5401 5402 5403 5404 5404 5404 5405 5405 5405 5407 5409 5410 5410 5409 5409 5409 5409 5409 5409 5408 5408 5408 5410 5411
5381 5381 5380 5379 5379 5378 5378 5378 5379 5380 5382 5383 5384 5384 5385 5387 5389 5390 5391 5392 5393 5394 5395 5395 5395 5395 5395 5396 5398 5399 5400 5400 5400 5401 5402 5402 5402 5402 5401 5401 5400 5401 5403
5372 5372 5371 5370 5369 5368 5369 5370 5371 5372 5373 5374 5375 5376 5377 5378 5380 5381 5382 5383 5383 5385 5386 5386 5386 5385 5386 5388 5389 5390 5390 5390 5391 5392 5394 5395 5395 5395 5395 5394 5394 5395 5395
5364 5363 5362 5362 5361 5362 5362 5362 5362 5363 5364 5365 5366 5367 5368 5370 5371 5372 5373 5374 5374 5375 5376 5376 5376 5377 5378 5379 5380 5381 5382 5382 5383 5384 5386 5387 5387 5387 5388 5389 5389 5390 5390
5357 5356 5355 5355 5355 5354 5354 5354 5354 5355 5356 5356 5357 5358 5360 5361 5363 5364 5365 5365 5366 5367 5367 5367 5367 5369 5369 5370 5371 5372 5373 5374 5374 5375 5377 5379 5380 5381 5383 5384 5384 5385 5386
5350 5349 5348 5348 5348 5347 5346 5346 5346 5346 5347 5348 5349 5350 5352 5354 5355 5356 5357 5359 5360 5360 5359 5360 5361 5361 5362 5363 5363 5364 5365 5365 5366 5368 5369 5372 5373 5375 5376 5377 5378 5380 5380
5343 5342 5342 5341 5341 5340 5340 5340 5338 5338 5339 5340 5341 5342 5344 5346 5348 5349 5350 5351 5352 5353 5353 5354 5354 5354 5354 5355 5356 5357 5358 5358 5359 5361 5362 5364 5366 5367 5369 5371 5372 5374 5375
5335 5335 5335 5334 5334 5334 5334 5334 5334 5333 5333 5333 5334 5335 5337 5339 5341 5342 5344 5345 5345 5345 5346 5346 5347 5347 5347 5348 5348 5350 5351 5352 5353 5354 5356 5357 5358 5360 5362 5364 5366 5368 5368
5328 5327 5327 5327 5327 5327 5327 5327 5327 5327 5328 5329 5329 5330 5331 5333 5334 5336 5337 5338 5338 5339 5339 5340 5340 5341 5341 5342 5342 5343 5345 5346 5347 5348 5350 5351 5352 5353 5356 5358 5360 5361 5363
5321 5321 5321 5321 5321 5321 5320 5320 5320 5320 5321 5322 5324 5325 5326 5327 5328 5329 5329 5331 5332 5332 5333 5333 5334 5335 5335 5336 5336 5337 5339 5340 5342 5343 5344 5345 5347 5348 5350 5352 5354 5355 5357
5315 5315 5316 5316 5316 5316 5316 5315 5315 5315 5316 5317 5318 5319 5320 5321 5322 5323 5323 5324 5325 5326 5327 5328 5328 5329 5329 5330 5331 5332 5334 5336 5337 5338 5339 5341 5342 5344 5345 5347 5349 5351 5352
5311 5311 5310 5311 5311 5311 5311 5311 5311 5311 5312 5313 5313 5314 5314 5315 5316 5317 5317 5318 5319 5320 5321 5322 5323 5323 5324 5325 5326 5328 5330 5331 5332 5333 5334 5336 5338 5339 5341 5343 5345 5346 5348
5306 5306 5306 5307 5306 5306 5306 5307 5307 5307 5308 5308 5309 5309 5309 5310 5310 5311 5311 5312 5313 5314 5315 5317 5318 5320 5320 5321 5322 5324 5326 5327 5329 5330 5331 5333 5334 5336 5338 5339 5341 5343 5344
5302 5302 5302 5302 5302 5302 5302 5303 5303 5303 5303 5304 5304 5304 5304 5305 5305 5306 5306 5307 5308 5310 5311 5313 5315 5316 5317 5318 5319 5321 5323 5325 5326 5327 5328 5330 5331 5332 5334 5336 5337 5339 5340
5297 5298 5298 5298 5298 5298 5298 5299 5299 5299 5299 5299 5299 5299 5300 5300 5300 5301 5302 5303 5305 5306 5308 5310 5311 5313 5314 5315 5317 5318 5320 5322 5323 5324 5325 5327 5328 5330 5331 5333 5334 5335 5337
5293 5293 5293 5294 5294 5294 5294 5294 5294 5294 5294 5294 5295 5295 5295 5295 5296 5297 5298 5299 5301 5303 5305 5307 5308 5310 5311 5313 5314 5316 5317 5319 5320 5322 5323 5324 5326 5327 5328 5329 5331 5332 5333
5288 5289 5289 5289 5289 5290 5290 5290 5290 5290 5290 5290 5290 5291 5291 5292 5293 5294 5295 5297 5298 5301 5302 5304 5305 5307 5308 5310 5311 5313 5315 5317 5318 5319 5321 5322 5323 5324 5325 5326 5327 5329 5330